軌道要素
Epoch 2023 Sept. 13.0 TT = JDT 2460200.5
T 2023 Mar. 10.48946 TT Rudenko
q 1.7430345 (2000.0) P Q
z +0.0016555 Peri. 317.39380 -0.89552008 -0.18846948
+/-0.0000023 Node 218.12092 +0.12902059 -0.97694036
e 0.9971143 Incl. 40.77178 -0.42590781 +0.10033341
>From 1072 observations 2022 Nov. 16-2023 July 16, mean residual 0".8.
|